owner,sensor,date,latitude,longitude,air_pressure(mBar),qcFlag 
COMPS,ioos:station:USF.COMPS:C10:1,2014-01-01T00:05:00Z,27.1690,-82.9260,1024.13,1111122 
COMPS,ioos:station:USF.COMPS:C10:1,2014-01-01T00:35:00Z,27.1690,-82.9260,1024.23,1111122 
COMPS,ioos:station:USF.COMPS:C10:1,2014-01-01T01:05:00Z,27.1690,-82.9260,1024.2,1111122 
COMPS,ioos:station:USF.COMPS:C10:1,2014-01-01T01:35:00Z,27.1690,-82.9260,1024.33,1111122 
COMPS,ioos:station:USF.COMPS:C10:1,2014-01-01T02:05:00Z,27.1690,-82.9260,1024.38,1111122 
COMPS,ioos:station:USF.COMPS:C10:1,2014-01-01T02:35:00Z,27.1690,-82.9260,1024.34,1111122 
COMPS,ioos:station:USF.COMPS:C10:1,2014-01-01T03:05:00Z,27.1690,-82.9260,1024.49,1111122 
COMPS,ioos:station:USF.COMPS:C10:1,2014-01-01T03:35:00Z,27.1690,-82.9260,1024.69,1111122 
COMPS,ioos:station:USF.COMPS:C10:1,2014-01-01T04:05:00Z,27.1690,-82.9260,1024.22,1111122 
COMPS,ioos:station:USF.COMPS:C10:1,2014-01-01T04:35:00Z,27.1690,-82.9260,1024.07,1111122 
COMPS,ioos:station:USF.COMPS:C10:1,2014-01-01T05:05:00Z,27.1690,-82.9260,1023.92,1111122 
COMPS,ioos:station:USF.COMPS:C10:1,2014-01-01T05:35:00Z,27.1690,-82.9260,1023.81,1111122 
COMPS,ioos:station:USF.COMPS:C10:1,2014-01-01T06:05:00Z,27.1690,-82.9260,1023.35,1111122 
COMPS,ioos:station:USF.COMPS:C10:1,2014-01-01T06:35:00Z,27.1690,-82.9260,1023.33,1111122 
COMPS,ioos:station:USF.COMPS:C10:1,2014-01-01T07:05:00Z,27.1690,-82.9260,1022.95,1111122 
COMPS,ioos:station:USF.COMPS:C10:1,2014-01-01T07:35:00Z,27.1690,-82.9260,1022.98,1111122 
COMPS,ioos:station:USF.COMPS:C10:1,2014-01-01T08:05:00Z,27.1690,-82.9260,1022.61,1111122 
COMPS,ioos:station:USF.COMPS:C10:1,2014-01-01T08:35:00Z,27.1690,-82.9260,1022.74,1111122 
COMPS,ioos:station:USF.COMPS:C10:1,2014-01-01T09:05:00Z,27.1690,-82.9260,1022.59,1111122 
COMPS,ioos:station:USF.COMPS:C10:1,2014-01-01T09:35:00Z,27.1690,-82.9260,1022.44,1111122 
COMPS,ioos:station:USF.COMPS:C10:1,2014-01-01T10:05:00Z,27.1690,-82.9260,1022.47,1111122 
COMPS,ioos:station:USF.COMPS:C10:1,2014-01-01T10:35:00Z,27.1690,-82.9260,1022.47,1111122 
COMPS,ioos:station:USF.COMPS:C10:1,2014-01-01T11:05:00Z,27.1690,-82.9260,1022.64,1111122 
COMPS,ioos:station:USF.COMPS:C10:1,2014-01-01T11:35:00Z,27.1690,-82.9260,1022.65,1111122 
COMPS,ioos:station:USF.COMPS:C10:1,2014-01-01T12:05:00Z,27.1690,-82.9260,1022.41,1111122 
COMPS,ioos:station:USF.COMPS:C10:1,2014-01-01T12:35:00Z,27.1690,-82.9260,1022.53,1111122 
COMPS,ioos:station:USF.COMPS:C10:1,2014-01-01T13:05:00Z,27.1690,-82.9260,1022.64,1111122 
COMPS,ioos:station:USF.COMPS:C10:1,2014-01-01T13:35:00Z,27.1690,-82.9260,1022.78,1111122 
COMPS,ioos:station:USF.COMPS:C10:1,2014-01-01T14:05:00Z,27.1690,-82.9260,1023.0,1111122 
COMPS,ioos:station:USF.COMPS:C10:1,2014-01-01T14:35:00Z,27.1690,-82.9260,1023.12,1111122 
COMPS,ioos:station:USF.COMPS:C10:1,2014-01-01T15:05:00Z,27.1690,-82.9260,1023.46,1111122 
COMPS,ioos:station:USF.COMPS:C10:1,2014-01-01T15:35:00Z,27.1690,-82.9260,1023.4,1111122 
COMPS,ioos:station:USF.COMPS:C10:1,2014-01-01T16:05:00Z,27.1690,-82.9260,1023.19,1111122 
COMPS,ioos:station:USF.COMPS:C10:1,2014-01-01T16:35:00Z,27.1690,-82.9260,1022.87,1111122 
COMPS,ioos:station:USF.COMPS:C10:1,2014-01-01T17:05:00Z,27.1690,-82.9260,1022.15,1111122 
COMPS,ioos:station:USF.COMPS:C10:1,2014-01-01T17:35:00Z,27.1690,-82.9260,1021.5,1111122 
COMPS,ioos:station:USF.COMPS:C10:1,2014-01-01T18:05:00Z,27.1690,-82.9260,1020.99,1111122 
COMPS,ioos:station:USF.COMPS:C10:1,2014-01-01T18:35:00Z,27.1690,-82.9260,1020.38,1111122 
COMPS,ioos:station:USF.COMPS:C10:1,2014-01-01T19:05:00Z,27.1690,-82.9260,1020.0,1111122 
COMPS,ioos:station:USF.COMPS:C10:1,2014-01-01T19:35:00Z,27.1690,-82.9260,1019.6,1111122 
COMPS,ioos:station:USF.COMPS:C10:1,2014-01-01T20:05:00Z,27.1690,-82.9260,1019.3,1111122 
COMPS,ioos:station:USF.COMPS:C10:1,2014-01-01T20:35:00Z,27.1690,-82.9260,1019.18,1111122 
COMPS,ioos:station:USF.COMPS:C10:1,2014-01-01T21:05:00Z,27.1690,-82.9260,1018.94,1111122 
COMPS,ioos:station:USF.COMPS:C10:1,2014-01-01T21:35:00Z,27.1690,-82.9260,1018.91,1111122 
COMPS,ioos:station:USF.COMPS:C10:1,2014-01-01T22:05:00Z,27.1690,-82.9260,1018.75,1111122 
COMPS,ioos:station:USF.COMPS:C10:1,2014-01-01T22:35:00Z,27.1690,-82.9260,1018.89,1111122 
COMPS,ioos:station:USF.COMPS:C10:1,2014-01-01T23:05:00Z,27.1690,-82.9260,1019.06,1111122 
COMPS,ioos:station:USF.COMPS:C10:1,2014-01-01T23:35:00Z,27.1690,-82.9260,1019.04,1111122 
COMPS,ioos:station:USF.COMPS:C10:1,2014-01-02T00:05:00Z,27.1690,-82.9260,1019.03,1111122 
COMPS,ioos:station:USF.COMPS:C10:1,2014-01-02T00:35:00Z,27.1690,-82.9260,1018.96,1111122 
COMPS,ioos:station:USF.COMPS:C10:1,2014-01-02T01:05:00Z,27.1690,-82.9260,1018.91,1111122 
COMPS,ioos:station:USF.COMPS:C10:1,2014-01-02T01:35:00Z,27.1690,-82.9260,1018.71,1111122 
COMPS,ioos:station:USF.COMPS:C10:1,2014-01-02T02:05:00Z,27.1690,-82.9260,1018.75,1111122 
COMPS,ioos:station:USF.COMPS:C10:1,2014-01-02T02:35:00Z,27.1690,-82.9260,1018.64,1111122 
COMPS,ioos:station:USF.COMPS:C10:1,2014-01-02T03:05:00Z,27.1690,-82.9260,1018.41,1111122 
COMPS,ioos:station:USF.COMPS:C10:1,2014-01-02T03:35:00Z,27.1690,-82.9260,1018.16,1111122 
COMPS,ioos:station:USF.COMPS:C10:1,2014-01-02T04:05:00Z,27.1690,-82.9260,1018.15,1111122 
COMPS,ioos:station:USF.COMPS:C10:1,2014-01-02T04:35:00Z,27.1690,-82.9260,1017.83,1111122 
COMPS,ioos:station:USF.COMPS:C10:1,2014-01-02T05:05:00Z,27.1690,-82.9260,1017.57,1111122 
COMPS,ioos:station:USF.COMPS:C10:1,2014-01-02T05:35:00Z,27.1690,-82.9260,1017.24,1111122 
COMPS,ioos:station:USF.COMPS:C10:1,2014-01-02T06:05:00Z,27.1690,-82.9260,1017.05,1111122 
COMPS,ioos:station:USF.COMPS:C10:1,2014-01-02T06:35:00Z,27.1690,-82.9260,1016.88,1111122 
COMPS,ioos:station:USF.COMPS:C10:1,2014-01-02T07:05:00Z,27.1690,-82.9260,1016.53,1111122 
COMPS,ioos:station:USF.COMPS:C10:1,2014-01-02T07:35:00Z,27.1690,-82.9260,1016.09,1111122 
COMPS,ioos:station:USF.COMPS:C10:1,2014-01-02T08:05:00Z,27.1690,-82.9260,1015.67,1111122 
COMPS,ioos:station:USF.COMPS:C10:1,2014-01-02T08:35:00Z,27.1690,-82.9260,1015.51,1111122 
COMPS,ioos:station:USF.COMPS:C10:1,2014-01-02T09:05:00Z,27.1690,-82.9260,1015.21,1111122 
COMPS,ioos:station:USF.COMPS:C10:1,2014-01-02T09:35:00Z,27.1690,-82.9260,1015.05,1111122 
COMPS,ioos:station:USF.COMPS:C10:1,2014-01-02T10:05:00Z,27.1690,-82.9260,1014.76,1111122 
COMPS,ioos:station:USF.COMPS:C10:1,2014-01-02T10:35:00Z,27.1690,-82.9260,1014.71,1111122 
COMPS,ioos:station:USF.COMPS:C10:1,2014-01-02T11:05:00Z,27.1690,-82.9260,1014.88,1111122 
COMPS,ioos:station:USF.COMPS:C10:1,2014-01-02T11:35:00Z,27.1690,-82.9260,1014.95,1111122 
COMPS,ioos:station:USF.COMPS:C10:1,2014-01-02T12:05:00Z,27.1690,-82.9260,1015.18,1111122 
COMPS,ioos:station:USF.COMPS:C10:1,2014-01-02T12:35:00Z,27.1690,-82.9260,1015.0,1111122 
COMPS,ioos:station:USF.COMPS:C10:1,2014-01-02T13:05:00Z,27.1690,-82.9260,1015.0,1111122 
COMPS,ioos:station:USF.COMPS:C10:1,2014-01-02T13:35:00Z,27.1690,-82.9260,1015.04,1111122 
COMPS,ioos:station:USF.COMPS:C10:1,2014-01-02T14:05:00Z,27.1690,-82.9260,1014.97,1111122 
COMPS,ioos:station:USF.COMPS:C10:1,2014-01-02T14:35:00Z,27.1690,-82.9260,1015.16,1111122 
COMPS,ioos:station:USF.COMPS:C10:1,2014-01-02T15:05:00Z,27.1690,-82.9260,1015.4,1111122 
COMPS,ioos:station:USF.COMPS:C10:1,2014-01-02T15:35:00Z,27.1690,-82.9260,1015.57,1111122 
COMPS,ioos:station:USF.COMPS:C10:1,2014-01-02T16:05:00Z,27.1690,-82.9260,1015.33,1111122 
COMPS,ioos:station:USF.COMPS:C10:1,2014-01-02T16:35:00Z,27.1690,-82.9260,1014.87,1111122 
COMPS,ioos:station:USF.COMPS:C10:1,2014-01-02T17:05:00Z,27.1690,-82.9260,1014.02,1111122 
COMPS,ioos:station:USF.COMPS:C10:1,2014-01-02T17:35:00Z,27.1690,-82.9260,1013.5,1111122 
COMPS,ioos:station:USF.COMPS:C10:1,2014-01-02T18:05:00Z,27.1690,-82.9260,1012.97,1111122 
COMPS,ioos:station:USF.COMPS:C10:1,2014-01-02T18:35:00Z,27.1690,-82.9260,1012.47,1111122 
COMPS,ioos:station:USF.COMPS:C10:1,2014-01-02T19:05:00Z,27.1690,-82.9260,1012.16,1111122 
COMPS,ioos:station:USF.COMPS:C10:1,2014-01-02T19:35:00Z,27.1690,-82.9260,1011.88,1111122 
COMPS,ioos:station:USF.COMPS:C10:1,2014-01-02T20:05:00Z,27.1690,-82.9260,1012.02,1111122 
COMPS,ioos:station:USF.COMPS:C10:1,2014-01-02T20:35:00Z,27.1690,-82.9260,1012.14,1111122 
COMPS,ioos:station:USF.COMPS:C10:1,2014-01-02T21:05:00Z,27.1690,-82.9260,1012.06,1111122 
COMPS,ioos:station:USF.COMPS:C10:1,2014-01-02T21:35:00Z,27.1690,-82.9260,1011.83,1111122 
COMPS,ioos:station:USF.COMPS:C10:1,2014-01-02T22:05:00Z,27.1690,-82.9260,1012.23,1111122 
COMPS,ioos:station:USF.COMPS:C10:1,2014-01-02T22:35:00Z,27.1690,-82.9260,1012.32,1111122 
COMPS,ioos:station:USF.COMPS:C10:1,2014-01-02T23:05:00Z,27.1690,-82.9260,1012.47,1111122 
COMPS,ioos:station:USF.COMPS:C10:1,2014-01-02T23:35:00Z,27.1690,-82.9260,1012.72,1111122 
COMPS,ioos:station:USF.COMPS:C10:1,2014-01-03T00:05:00Z,27.1690,-82.9260,1013.32,1111122 
COMPS,ioos:station:USF.COMPS:C10:1,2014-01-03T00:35:00Z,27.1690,-82.9260,1013.21,1111122 
COMPS,ioos:station:USF.COMPS:C10:1,2014-01-03T01:05:00Z,27.1690,-82.9260,1013.33,1111122 
COMPS,ioos:station:USF.COMPS:C10:1,2014-01-03T01:35:00Z,27.1690,-82.9260,1013.39,1111122 
COMPS,ioos:station:USF.COMPS:C10:1,2014-01-03T02:05:00Z,27.1690,-82.9260,1013.69,1111122 
COMPS,ioos:station:USF.COMPS:C10:1,2014-01-03T02:35:00Z,27.1690,-82.9260,1014.23,1111122 
COMPS,ioos:station:USF.COMPS:C10:1,2014-01-03T03:05:00Z,27.1690,-82.9260,1014.82,1111122 
COMPS,ioos:station:USF.COMPS:C10:1,2014-01-03T03:35:00Z,27.1690,-82.9260,1014.9,1111122 
COMPS,ioos:station:USF.COMPS:C10:1,2014-01-03T04:05:00Z,27.1690,-82.9260,1015.34,1111122 
COMPS,ioos:station:USF.COMPS:C10:1,2014-01-03T04:35:00Z,27.1690,-82.9260,1015.63,1111122 
COMPS,ioos:station:USF.COMPS:C10:1,2014-01-03T05:05:00Z,27.1690,-82.9260,1015.78,1111122 
COMPS,ioos:station:USF.COMPS:C10:1,2014-01-03T05:35:00Z,27.1690,-82.9260,1016.11,1111122 
COMPS,ioos:station:USF.COMPS:C10:1,2014-01-03T06:05:00Z,27.1690,-82.9260,1016.46,1111122 
COMPS,ioos:station:USF.COMPS:C10:1,2014-01-03T06:35:00Z,27.1690,-82.9260,1016.68,1111122 
COMPS,ioos:station:USF.COMPS:C10:1,2014-01-03T07:05:00Z,27.1690,-82.9260,1016.71,1111122 
COMPS,ioos:station:USF.COMPS:C10:1,2014-01-03T07:35:00Z,27.1690,-82.9260,1016.68,1111122 
COMPS,ioos:station:USF.COMPS:C10:1,2014-01-03T08:05:00Z,27.1690,-82.9260,1017.08,1111122 
COMPS,ioos:station:USF.COMPS:C10:1,2014-01-03T08:35:00Z,27.1690,-82.9260,1017.69,1111122 
COMPS,ioos:station:USF.COMPS:C10:1,2014-01-03T09:05:00Z,27.1690,-82.9260,1018.07,1111122 
COMPS,ioos:station:USF.COMPS:C10:1,2014-01-03T09:35:00Z,27.1690,-82.9260,1017.73,1111122 
COMPS,ioos:station:USF.COMPS:C10:1,2014-01-03T10:05:00Z,27.1690,-82.9260,1018.67,1111122 
COMPS,ioos:station:USF.COMPS:C10:1,2014-01-03T10:35:00Z,27.1690,-82.9260,1018.79,1111122 
COMPS,ioos:station:USF.COMPS:C10:1,2014-01-03T11:05:00Z,27.1690,-82.9260,1018.57,1111122 
COMPS,ioos:station:USF.COMPS:C10:1,2014-01-03T11:35:00Z,27.1690,-82.9260,1018.9,1111122 
COMPS,ioos:station:USF.COMPS:C10:1,2014-01-03T12:05:00Z,27.1690,-82.9260,1019.39,1111122 
COMPS,ioos:station:USF.COMPS:C10:1,2014-01-03T12:35:00Z,27.1690,-82.9260,1020.32,1111122 
COMPS,ioos:station:USF.COMPS:C10:1,2014-01-03T13:05:00Z,27.1690,-82.9260,1021.0,1111122 
COMPS,ioos:station:USF.COMPS:C10:1,2014-01-03T13:35:00Z,27.1690,-82.9260,1021.52,1111122 
COMPS,ioos:station:USF.COMPS:C10:1,2014-01-03T14:05:00Z,27.1690,-82.9260,1022.09,1111122 
COMPS,ioos:station:USF.COMPS:C10:1,2014-01-03T14:35:00Z,27.1690,-82.9260,1022.22,1111122 
COMPS,ioos:station:USF.COMPS:C10:1,2014-01-03T15:05:00Z,27.1690,-82.9260,1022.83,1111122 
COMPS,ioos:station:USF.COMPS:C10:1,2014-01-03T15:35:00Z,27.1690,-82.9260,1022.96,1111122 
COMPS,ioos:station:USF.COMPS:C10:1,2014-01-03T16:05:00Z,27.1690,-82.9260,1022.5,1111122 
COMPS,ioos:station:USF.COMPS:C10:1,2014-01-03T16:35:00Z,27.1690,-82.9260,1022.46,1111122 
COMPS,ioos:station:USF.COMPS:C10:1,2014-01-03T17:05:00Z,27.1690,-82.9260,1022.58,1111122 
COMPS,ioos:station:USF.COMPS:C10:1,2014-01-03T17:35:00Z,27.1690,-82.9260,1021.95,1111122 
COMPS,ioos:station:USF.COMPS:C10:1,2014-01-03T18:05:00Z,27.1690,-82.9260,1021.25,1111122 
COMPS,ioos:station:USF.COMPS:C10:1,2014-01-03T18:35:00Z,27.1690,-82.9260,1020.91,1111122 
COMPS,ioos:station:USF.COMPS:C10:1,2014-01-03T19:05:00Z,27.1690,-82.9260,1021.05,1111122 
COMPS,ioos:station:USF.COMPS:C10:1,2014-01-03T19:35:00Z,27.1690,-82.9260,1021.26,1111122 
COMPS,ioos:station:USF.COMPS:C10:1,2014-01-03T20:05:00Z,27.1690,-82.9260,1021.55,1111122 
COMPS,ioos:station:USF.COMPS:C10:1,2014-01-03T20:35:00Z,27.1690,-82.9260,1021.45,1111122 
COMPS,ioos:station:USF.COMPS:C10:1,2014-01-03T21:05:00Z,27.1690,-82.9260,1021.42,1111122 
COMPS,ioos:station:USF.COMPS:C10:1,2014-01-03T21:35:00Z,27.1690,-82.9260,1022.09,1111122 
COMPS,ioos:station:USF.COMPS:C10:1,2014-01-03T22:05:00Z,27.1690,-82.9260,1022.22,1111122 
COMPS,ioos:station:USF.COMPS:C10:1,2014-01-03T22:35:00Z,27.1690,-82.9260,1022.54,1111122 
COMPS,ioos:station:USF.COMPS:C10:1,2014-01-03T23:05:00Z,27.1690,-82.9260,1022.64,1111122 
COMPS,ioos:station:USF.COMPS:C10:1,2014-01-03T23:35:00Z,27.1690,-82.9260,1023.21,1111122 
COMPS,ioos:station:USF.COMPS:C10:1,2014-01-04T00:05:00Z,27.1690,-82.9260,1023.65,1111122 
COMPS,ioos:station:USF.COMPS:C10:1,2014-01-04T00:35:00Z,27.1690,-82.9260,1024.06,1111122 
COMPS,ioos:station:USF.COMPS:C10:1,2014-01-04T01:05:00Z,27.1690,-82.9260,1024.56,1111122 
COMPS,ioos:station:USF.COMPS:C10:1,2014-01-04T01:35:00Z,27.1690,-82.9260,1024.67,1111122 
COMPS,ioos:station:USF.COMPS:C10:1,2014-01-04T02:05:00Z,27.1690,-82.9260,1024.53,1111122 
COMPS,ioos:station:USF.COMPS:C10:1,2014-01-04T02:35:00Z,27.1690,-82.9260,1024.38,1111122 
COMPS,ioos:station:USF.COMPS:C10:1,2014-01-04T03:05:00Z,27.1690,-82.9260,1024.52,1111122 
COMPS,ioos:station:USF.COMPS:C10:1,2014-01-04T03:35:00Z,27.1690,-82.9260,1024.82,1111122 
COMPS,ioos:station:USF.COMPS:C10:1,2014-01-04T04:05:00Z,27.1690,-82.9260,1024.69,1111122 
COMPS,ioos:station:USF.COMPS:C10:1,2014-01-04T04:35:00Z,27.1690,-82.9260,1024.38,1111122 
COMPS,ioos:station:USF.COMPS:C10:1,2014-01-04T05:05:00Z,27.1690,-82.9260,1023.21,1111122 
COMPS,ioos:station:USF.COMPS:C10:1,2014-01-04T05:35:00Z,27.1690,-82.9260,1022.78,1111122 
COMPS,ioos:station:USF.COMPS:C10:1,2014-01-04T06:05:00Z,27.1690,-82.9260,1022.27,1111122 
COMPS,ioos:station:USF.COMPS:C10:1,2014-01-04T06:35:00Z,27.1690,-82.9260,1022.61,1111122 
COMPS,ioos:station:USF.COMPS:C10:1,2014-01-04T08:05:00Z,27.1690,-82.9260,1021.05,1111122 
COMPS,ioos:station:USF.COMPS:C10:1,2014-01-04T08:35:00Z,27.1690,-82.9260,1021.03,1111122 
COMPS,ioos:station:USF.COMPS:C10:1,2014-01-04T09:05:00Z,27.1690,-82.9260,1021.42,1111122 
COMPS,ioos:station:USF.COMPS:C10:1,2014-01-04T09:35:00Z,27.1690,-82.9260,1021.67,1111122 
COMPS,ioos:station:USF.COMPS:C10:1,2014-01-04T10:05:00Z,27.1690,-82.9260,1021.63,1111122 
COMPS,ioos:station:USF.COMPS:C10:1,2014-01-04T10:35:00Z,27.1690,-82.9260,1021.07,1111122 
COMPS,ioos:station:USF.COMPS:C10:1,2014-01-04T11:05:00Z,27.1690,-82.9260,1021.76,1111122 
COMPS,ioos:station:USF.COMPS:C10:1,2014-01-04T11:35:00Z,27.1690,-82.9260,1020.91,1111122 
COMPS,ioos:station:USF.COMPS:C10:1,2014-01-04T12:05:00Z,27.1690,-82.9260,1021.51,1111122 
COMPS,ioos:station:USF.COMPS:C10:1,2014-01-04T12:35:00Z,27.1690,-82.9260,1021.29,1111122 
COMPS,ioos:station:USF.COMPS:C10:1,2014-01-04T13:05:00Z,27.1690,-82.9260,1022.5,1111122 
COMPS,ioos:station:USF.COMPS:C10:1,2014-01-04T13:35:00Z,27.1690,-82.9260,1022.74,1111122 
COMPS,ioos:station:USF.COMPS:C10:1,2014-01-04T14:05:00Z,27.1690,-82.9260,1023.02,1111122 
COMPS,ioos:station:USF.COMPS:C10:1,2014-01-04T14:35:00Z,27.1690,-82.9260,1022.95,1111122 
COMPS,ioos:station:USF.COMPS:C10:1,2014-01-04T15:05:00Z,27.1690,-82.9260,1022.76,1111122 
COMPS,ioos:station:USF.COMPS:C10:1,2014-01-04T15:35:00Z,27.1690,-82.9260,1022.17,1111122 
COMPS,ioos:station:USF.COMPS:C10:1,2014-01-04T16:05:00Z,27.1690,-82.9260,1022.23,1111122 
COMPS,ioos:station:USF.COMPS:C10:1,2014-01-04T16:35:00Z,27.1690,-82.9260,1021.78,1111122 
COMPS,ioos:station:USF.COMPS:C10:1,2014-01-04T17:05:00Z,27.1690,-82.9260,1021.68,1111122 
COMPS,ioos:station:USF.COMPS:C10:1,2014-01-04T17:35:00Z,27.1690,-82.9260,1021.46,1111122 
COMPS,ioos:station:USF.COMPS:C10:1,2014-01-04T18:05:00Z,27.1690,-82.9260,1020.93,1111122 
COMPS,ioos:station:USF.COMPS:C10:1,2014-01-04T18:35:00Z,27.1690,-82.9260,1019.95,1111122 
COMPS,ioos:station:USF.COMPS:C10:1,2014-01-04T19:05:00Z,27.1690,-82.9260,1019.39,1111122 
COMPS,ioos:station:USF.COMPS:C10:1,2014-01-04T19:35:00Z,27.1690,-82.9260,1018.52,1111122 
COMPS,ioos:station:USF.COMPS:C10:1,2014-01-04T20:05:00Z,27.1690,-82.9260,1018.54,1111122 
COMPS,ioos:station:USF.COMPS:C10:1,2014-01-04T20:35:00Z,27.1690,-82.9260,1018.77,1111122 
COMPS,ioos:station:USF.COMPS:C10:1,2014-01-04T21:05:00Z,27.1690,-82.9260,1019.07,1111122 
COMPS,ioos:station:USF.COMPS:C10:1,2014-01-04T21:35:00Z,27.1690,-82.9260,1019.86,1111122 
COMPS,ioos:station:USF.COMPS:C10:1,2014-01-04T22:05:00Z,27.1690,-82.9260,1020.21,1111122 
COMPS,ioos:station:USF.COMPS:C10:1,2014-01-04T22:35:00Z,27.1690,-82.9260,1020.08,1111122 
COMPS,ioos:station:USF.COMPS:C10:1,2014-01-04T23:05:00Z,27.1690,-82.9260,1020.67,1111122 
COMPS,ioos:station:USF.COMPS:C10:1,2014-01-04T23:35:00Z,27.1690,-82.9260,1020.35,1111122 
COMPS,ioos:station:USF.COMPS:C10:1,2014-01-05T00:05:00Z,27.1690,-82.9260,1019.27,1111122 
COMPS,ioos:station:USF.COMPS:C10:1,2014-01-05T00:35:00Z,27.1690,-82.9260,1019.85,1111122 
COMPS,ioos:station:USF.COMPS:C10:1,2014-01-05T01:05:00Z,27.1690,-82.9260,1019.76,1111122 
COMPS,ioos:station:USF.COMPS:C10:1,2014-01-05T01:35:00Z,27.1690,-82.9260,1019.97,1111122 
COMPS,ioos:station:USF.COMPS:C10:1,2014-01-05T02:05:00Z,27.1690,-82.9260,1019.58,1111122 
COMPS,ioos:station:USF.COMPS:C10:1,2014-01-05T02:35:00Z,27.1690,-82.9260,1019.26,1111122 
COMPS,ioos:station:USF.COMPS:C10:1,2014-01-05T03:05:00Z,27.1690,-82.9260,1020.09,1111122 
COMPS,ioos:station:USF.COMPS:C10:1,2014-01-05T03:35:00Z,27.1690,-82.9260,1019.9,1111122 
COMPS,ioos:station:USF.COMPS:C10:1,2014-01-05T04:05:00Z,27.1690,-82.9260,1018.79,1111122 
COMPS,ioos:station:USF.COMPS:C10:1,2014-01-05T04:35:00Z,27.1690,-82.9260,1018.43,1111122 
COMPS,ioos:station:USF.COMPS:C10:1,2014-01-05T05:05:00Z,27.1690,-82.9260,1018.32,1111122 
COMPS,ioos:station:USF.COMPS:C10:1,2014-01-05T05:35:00Z,27.1690,-82.9260,1017.74,1111122 
COMPS,ioos:station:USF.COMPS:C10:1,2014-01-05T06:05:00Z,27.1690,-82.9260,1017.64,1111122 
COMPS,ioos:station:USF.COMPS:C10:1,2014-01-05T06:35:00Z,27.1690,-82.9260,1016.81,1111122 
COMPS,ioos:station:USF.COMPS:C10:1,2014-01-05T07:05:00Z,27.1690,-82.9260,1016.39,1111122 
COMPS,ioos:station:USF.COMPS:C10:1,2014-01-05T07:35:00Z,27.1690,-82.9260,1016.62,1111122 
COMPS,ioos:station:USF.COMPS:C10:1,2014-01-05T08:05:00Z,27.1690,-82.9260,1016.43,1111122 
COMPS,ioos:station:USF.COMPS:C10:1,2014-01-05T08:35:00Z,27.1690,-82.9260,1016.34,1111122 
COMPS,ioos:station:USF.COMPS:C10:1,2014-01-05T09:05:00Z,27.1690,-82.9260,1016.6,1111122 
COMPS,ioos:station:USF.COMPS:C10:1,2014-01-05T09:35:00Z,27.1690,-82.9260,1016.82,1111122 
COMPS,ioos:station:USF.COMPS:C10:1,2014-01-05T10:05:00Z,27.1690,-82.9260,1016.54,1111122 
COMPS,ioos:station:USF.COMPS:C10:1,2014-01-05T10:35:00Z,27.1690,-82.9260,1016.22,1111122 
COMPS,ioos:station:USF.COMPS:C10:1,2014-01-05T11:05:00Z,27.1690,-82.9260,1016.3,1111122 
COMPS,ioos:station:USF.COMPS:C10:1,2014-01-05T11:35:00Z,27.1690,-82.9260,1016.73,1111122 
COMPS,ioos:station:USF.COMPS:C10:1,2014-01-05T12:05:00Z,27.1690,-82.9260,1017.02,1111122 
COMPS,ioos:station:USF.COMPS:C10:1,2014-01-05T12:35:00Z,27.1690,-82.9260,1017.42,1111122 
COMPS,ioos:station:USF.COMPS:C10:1,2014-01-05T13:05:00Z,27.1690,-82.9260,1017.81,1111122 
COMPS,ioos:station:USF.COMPS:C10:1,2014-01-05T13:35:00Z,27.1690,-82.9260,1017.78,1111122 
COMPS,ioos:station:USF.COMPS:C10:1,2014-01-05T14:05:00Z,27.1690,-82.9260,1018.03,1111122 
COMPS,ioos:station:USF.COMPS:C10:1,2014-01-05T14:35:00Z,27.1690,-82.9260,1017.88,1111122 
COMPS,ioos:station:USF.COMPS:C10:1,2014-01-05T15:05:00Z,27.1690,-82.9260,1018.12,1111122 
COMPS,ioos:station:USF.COMPS:C10:1,2014-01-05T15:35:00Z,27.1690,-82.9260,1018.26,1111122 
COMPS,ioos:station:USF.COMPS:C10:1,2014-01-05T16:05:00Z,27.1690,-82.9260,1018.02,1111122 
COMPS,ioos:station:USF.COMPS:C10:1,2014-01-05T16:35:00Z,27.1690,-82.9260,1017.64,1111122 
COMPS,ioos:station:USF.COMPS:C10:1,2014-01-05T17:05:00Z,27.1690,-82.9260,1017.38,1111122 
COMPS,ioos:station:USF.COMPS:C10:1,2014-01-05T17:35:00Z,27.1690,-82.9260,1016.88,1111122 
COMPS,ioos:station:USF.COMPS:C10:1,2014-01-05T18:05:00Z,27.1690,-82.9260,1016.13,1111122 
COMPS,ioos:station:USF.COMPS:C10:1,2014-01-05T18:35:00Z,27.1690,-82.9260,1015.71,1111122 
COMPS,ioos:station:USF.COMPS:C10:1,2014-01-05T19:05:00Z,27.1690,-82.9260,1015.44,1111122 
COMPS,ioos:station:USF.COMPS:C10:1,2014-01-05T19:35:00Z,27.1690,-82.9260,1015.6,1111122 
COMPS,ioos:station:USF.COMPS:C10:1,2014-01-05T20:05:00Z,27.1690,-82.9260,1015.5,1111122 
COMPS,ioos:station:USF.COMPS:C10:1,2014-01-05T20:35:00Z,27.1690,-82.9260,1015.58,1111122 
COMPS,ioos:station:USF.COMPS:C10:1,2014-01-05T21:05:00Z,27.1690,-82.9260,1015.7,1111122 
COMPS,ioos:station:USF.COMPS:C10:1,2014-01-05T21:35:00Z,27.1690,-82.9260,1015.82,1111122 
COMPS,ioos:station:USF.COMPS:C10:1,2014-01-05T22:05:00Z,27.1690,-82.9260,1016.09,1111122 
COMPS,ioos:station:USF.COMPS:C10:1,2014-01-05T22:35:00Z,27.1690,-82.9260,1015.97,1111122 
COMPS,ioos:station:USF.COMPS:C10:1,2014-01-05T23:05:00Z,27.1690,-82.9260,1015.9,1111122 
COMPS,ioos:station:USF.COMPS:C10:1,2014-01-05T23:35:00Z,27.1690,-82.9260,1015.83,1111122 
COMPS,ioos:station:USF.COMPS:C10:1,2014-01-06T00:05:00Z,27.1690,-82.9260,1015.81,1111122 
COMPS,ioos:station:USF.COMPS:C10:1,2014-01-06T00:35:00Z,27.1690,-82.9260,1015.78,1111122 
COMPS,ioos:station:USF.COMPS:C10:1,2014-01-06T01:05:00Z,27.1690,-82.9260,1016.17,1111122 
COMPS,ioos:station:USF.COMPS:C10:1,2014-01-06T01:35:00Z,27.1690,-82.9260,1016.27,1111122 
COMPS,ioos:station:USF.COMPS:C10:1,2014-01-06T02:05:00Z,27.1690,-82.9260,1016.44,1111122 
COMPS,ioos:station:USF.COMPS:C10:1,2014-01-06T02:35:00Z,27.1690,-82.9260,1016.53,1111122 
COMPS,ioos:station:USF.COMPS:C10:1,2014-01-06T03:05:00Z,27.1690,-82.9260,1016.55,1111122 
COMPS,ioos:station:USF.COMPS:C10:1,2014-01-06T03:35:00Z,27.1690,-82.9260,1016.47,1111122 
COMPS,ioos:station:USF.COMPS:C10:1,2014-01-06T04:05:00Z,27.1690,-82.9260,1016.11,1111122 
COMPS,ioos:station:USF.COMPS:C10:1,2014-01-06T04:35:00Z,27.1690,-82.9260,1015.83,1111122 
COMPS,ioos:station:USF.COMPS:C10:1,2014-01-06T05:05:00Z,27.1690,-82.9260,1015.78,1111122 
COMPS,ioos:station:USF.COMPS:C10:1,2014-01-06T05:35:00Z,27.1690,-82.9260,1015.62,1111122 
COMPS,ioos:station:USF.COMPS:C10:1,2014-01-06T06:05:00Z,27.1690,-82.9260,1015.67,1111122 
COMPS,ioos:station:USF.COMPS:C10:1,2014-01-06T06:35:00Z,27.1690,-82.9260,1015.71,1111122 
COMPS,ioos:station:USF.COMPS:C10:1,2014-01-06T07:05:00Z,27.1690,-82.9260,1015.75,1111122 
COMPS,ioos:station:USF.COMPS:C10:1,2014-01-06T07:35:00Z,27.1690,-82.9260,1015.67,1111122 
COMPS,ioos:station:USF.COMPS:C10:1,2014-01-06T08:05:00Z,27.1690,-82.9260,1015.48,1111122 
COMPS,ioos:station:USF.COMPS:C10:1,2014-01-06T08:35:00Z,27.1690,-82.9260,1015.39,1111122 
COMPS,ioos:station:USF.COMPS:C10:1,2014-01-06T09:05:00Z,27.1690,-82.9260,1015.37,1111122 
COMPS,ioos:station:USF.COMPS:C10:1,2014-01-06T09:35:00Z,27.1690,-82.9260,1015.44,1111122 
COMPS,ioos:station:USF.COMPS:C10:1,2014-01-06T10:05:00Z,27.1690,-82.9260,1015.37,1111122 
COMPS,ioos:station:USF.COMPS:C10:1,2014-01-06T10:35:00Z,27.1690,-82.9260,1015.46,1111122 
COMPS,ioos:station:USF.COMPS:C10:1,2014-01-06T11:05:00Z,27.1690,-82.9260,1015.51,1111122 
COMPS,ioos:station:USF.COMPS:C10:1,2014-01-06T11:35:00Z,27.1690,-82.9260,1015.67,1111122 
COMPS,ioos:station:USF.COMPS:C10:1,2014-01-06T12:05:00Z,27.1690,-82.9260,1015.9,1111122 
COMPS,ioos:station:USF.COMPS:C10:1,2014-01-06T12:35:00Z,27.1690,-82.9260,1016.23,1111122 
COMPS,ioos:station:USF.COMPS:C10:1,2014-01-06T13:05:00Z,27.1690,-82.9260,1016.71,1111122 
COMPS,ioos:station:USF.COMPS:C10:1,2014-01-06T13:35:00Z,27.1690,-82.9260,1017.28,1111122 